TimeAST,TemperatureF,Dew PointF,Humidity,Sea Level PressureIn,VisibilityMPH,Wind Direction,Wind SpeedMPH,Gust SpeedMPH,PrecipitationIn,Events,Conditions,WindDirDegrees,DateUTC
12:00 AM,75.2,71.6,89,29.95,6.2,East,3.5,-,N/A,,Partly Cloudy,100,2013-01-09 04:00:00
1:00 AM,75.2,71.6,89,29.95,6.2,ESE,3.5,-,N/A,,Partly Cloudy,120,2013-01-09 05:00:00
2:00 AM,74,71,88,29.94,11,Calm,Calm,,,,Haze,,2013-01-09 06:00:00
2:00 AM,75.2,71.6,89,29.92,6.2,Calm,Calm,-,N/A,,Partly Cloudy,0,2013-01-09 06:00:00
3:00 AM,73.4,71.6,94,29.92,6.2,Calm,Calm,-,N/A,,Scattered Clouds,0,2013-01-09 07:00:00
4:00 AM,75.2,71.6,89,29.92,5.6,Calm,Calm,-,N/A,Rain,Light Rain Showers,0,2013-01-09 08:00:00
5:00 AM,74,69,81,29.95,10,Calm,Calm,,,,Scattered Clouds,,2013-01-09 09:00:00
5:00 AM,75.2,69.8,83,29.95,6.2,Calm,Calm,-,N/A,,Mostly Cloudy,0,2013-01-09 09:00:00
6:00 AM,73.4,71.6,94,29.95,6.2,Calm,Calm,-,N/A,,Mostly Cloudy,0,2013-01-09 10:00:00
7:00 AM,75.2,71.6,89,29.98,6.2,Calm,Calm,-,N/A,,Partly Cloudy,0,2013-01-09 11:00:00
8:00 AM,77,71,77,30.01,6,ESE,6.9,,,,Mostly Cloudy,110,2013-01-09 12:00:00
8:00 AM,77.0,71.6,83,30.01,6.2,ESE,6.9,-,N/A,,Scattered Clouds,110,2013-01-09 12:00:00
9:00 AM,82.4,73.4,74,30.01,-9999.0,East,11.5,-,N/A,Rain,Light Rain Showers,100,2013-01-09 13:00:00
10:00 AM,86.0,71.6,62,30.01,6.2,ESE,13.8,-,N/A,,Scattered Clouds,120,2013-01-09 14:00:00
11:00 AM,85,68,48,30.02,10,ESE,19.6,,,,Haze,110,2013-01-09 15:00:00
11:00 AM,86.0,68.0,55,30.01,6.2,ESE,19.6,-,N/A,,Scattered Clouds,110,2013-01-09 15:00:00
12:00 PM,84.2,71.6,66,29.98,6.2,ESE,20.7,-,N/A,,Partly Cloudy,110,2013-01-09 16:00:00
1:00 PM,86.0,69.8,58,29.98,6.2,ESE,17.3,-,N/A,,Scattered Clouds,110,2013-01-09 17:00:00
2:00 PM,86,70,49,29.96,10,East,19.6,,,,Partly Cloudy,100,2013-01-09 18:00:00
2:00 PM,86.0,69.8,58,29.95,6.2,East,19.6,-,N/A,,Scattered Clouds,100,2013-01-09 18:00:00
3:00 PM,86.0,69.8,58,29.95,4.3,ESE,15.0,-,N/A,,Mostly Cloudy,110,2013-01-09 19:00:00
3:11 PM,86.0,69.8,58,29.95,2.5,East,13.8,38.0,N/A,Rain,Light Rain Showers,100,2013-01-09 19:11:00
4:00 PM,78.8,73.4,83,29.98,2.5,SE,17.3,-,N/A,Rain,Light Rain Showers,130,2013-01-09 20:00:00
5:00 PM,77,73,83,29.96,7,ESE,5.8,,,,Partly Cloudy,110,2013-01-09 21:00:00
5:00 PM,77.0,73.4,89,29.95,6.2,ESE,5.8,-,N/A,,Scattered Clouds,110,2013-01-09 21:00:00
5:14 PM,77.0,73.4,89,29.95,1.9,ESE,11.5,-,N/A,Rain,Light Rain Showers,110,2013-01-09 21:14:00
5:17 PM,77.0,73.4,89,29.95,2.5,East,13.8,29.9,N/A,Rain,Light Rain Showers,90,2013-01-09 21:17:00
6:00 PM,75.2,71.6,89,29.95,6.2,East,5.8,-,N/A,,Scattered Clouds,100,2013-01-09 22:00:00
7:00 PM,75.2,71.6,89,29.95,6.2,Calm,Calm,-,N/A,,Scattered Clouds,0,2013-01-09 23:00:00
8:00 PM,76,72,83,29.97,7,East,5.8,,,,Partly Cloudy,100,2013-01-10 00:00:00
8:00 PM,75.2,71.6,89,29.95,6.2,East,5.8,-,N/A,,Partly Cloudy,100,2013-01-10 00:00:00
9:00 PM,75.2,71.6,89,29.98,6.2,ESE,5.8,-,N/A,,Partly Cloudy,110,2013-01-10 01:00:00
10:00 PM,75.2,71.6,89,29.98,6.2,East,5.8,-,N/A,,Partly Cloudy,100,2013-01-10 02:00:00
11:00 PM,76,71,80,30.00,12,Calm,Calm,,,,Scattered Clouds,,2013-01-10 03:00:00
11:00 PM,77.0,71.6,83,29.98,6.2,Calm,Calm,-,N/A,,Partly Cloudy,0,2013-01-10 03:00:00